When you browse on this site, cookies collect data to enhance your experience and personalize the content and advertising you see.
Visit our Privacy Policy to learn more. By continuing to use the site, you agree to this use of cookies and data.
  • In Hungary
  • List of Countries
  • For 7 days
  • Water Temperature
  • Satellite Maps
  • Weather Map
  • News
  • Weather Widgets
  • user-avatar
    Login

    Hourly Weather Maydan

    Today, 23 January, Wednesday

    Time Temperature Precipitation Wind Pressure Humidity
    00:00 -18°C° 0 mm 2 mps 750 mmHg 97%
    01:00 -19°C° 0 mm 2 mps 751 mmHg 97%
    02:00 -19°C° 0 mm 2 mps 751 mmHg 98%
    03:00 -20°C° 0 mm 2 mps 752 mmHg 98%
    04:00 -19°C° 0 mm 1 mps 751 mmHg 99%
    05:00 -19°C° 0 mm 1 mps 752 mmHg 99%
    06:00 -20°C° 0 mm 1 mps 752 mmHg 99%
    07:00 -20°C° 0 mm 1 mps 752 mmHg 99%
    08:00 -21°C° 0 mm 2 mps 753 mmHg 99%
    09:00 -21°C° 0 mm 2 mps 753 mmHg 98%
    10:00 -21°C° 0 mm 2 mps 754 mmHg 98%
    11:00 -20°C° 0 mm 2 mps 754 mmHg 97%
    12:00 -20°C° 0 mm 2 mps 755 mmHg 96%
    13:00 -19°C° 0 mm 2 mps 755 mmHg 96%
    14:00 -20°C° 0 mm 2 mps 755 mmHg 96%
    15:00 -20°C° 0 mm 2 mps 756 mmHg 97%
    16:00 -21°C° 0 mm 2 mps 756 mmHg 98%
    17:00 -23°C° 0 mm 2 mps 757 mmHg 99%
    18:00 -24°C° 0 mm 2 mps 757 mmHg 99%
    19:00 -25°C° 0 mm 2 mps 758 mmHg 100%
    20:00 -25°C° 0 mm 2 mps 758 mmHg 100%
    21:00 -22°C° 0 mm 1 mps 758 mmHg 100%
    22:00 -23°C° 0 mm 1 mps 759 mmHg 100%
    23:00 -23°C° 0 mm 1 mps 759 mmHg 100%

    Tomorrow, 24 January, Thursday

    Time Temperature Precipitation Wind Pressure Humidity
    00:00 -23°C° 0 mm 1 mps 760 mmHg 100%
    01:00 -24°C° 0 mm 1 mps 760 mmHg 99%
    02:00 -24°C° 0 mm 1 mps 760 mmHg 99%
    03:00 -24°C° 0 mm 1 mps 761 mmHg 99%
    04:00 -24°C° 0 mm 0 mps 761 mmHg 99%
    05:00 -24°C° 0 mm 1 mps 762 mmHg 99%
    06:00 -24°C° 0 mm 1 mps 762 mmHg 99%
    07:00 -24°C° 0 mm 1 mps 762 mmHg 98%
    08:00 -23°C° 0 mm 1 mps 763 mmHg 96%
    09:00 -22°C° 0 mm 1 mps 763 mmHg 94%
    10:00 -24°C° 0 mm 2 mps 763 mmHg 92%
    11:00 -23°C° 0 mm 2 mps 763 mmHg 91%
    12:00 -21°C° 0 mm 2 mps 763 mmHg 90%
    13:00 -19°C° 0 mm 2 mps 762 mmHg 89%
    14:00 -19°C° 0 mm 2 mps 762 mmHg 89%
    15:00 -21°C° 0 mm 3 mps 762 mmHg 88%
    16:00 -21°C° 0 mm 3 mps 762 mmHg 87%
    17:00 -20°C° 0 mm 4 mps 761 mmHg 84%
    18:00 -20°C° 0 mm 5 mps 761 mmHg 82%
    19:00 -20°C° 0 mm 6 mps 760 mmHg 80%
    20:00 -18°C° 0 mm 6 mps 760 mmHg 79%
    21:00 -17°C° 0 mm 6 mps 759 mmHg 78%
    22:00 -17°C° 0 mm 6 mps 759 mmHg 78%
    23:00 -17°C° 0 mm 7 mps 758 mmHg 77%

    Day after tomorrow, 25 January, Friday

    Time Temperature Precipitation Wind Pressure Humidity
    00:00 -17°C° 0 mm 7 mps 758 mmHg 76%
    01:00 -17°C° 0 mm 7 mps 757 mmHg 75%
    02:00 -17°C° 0.1 mm 8 mps 757 mmHg 77%
    03:00 -18°C° 0.1 mm 8 mps 756 mmHg 80%
    04:00 -18°C° 0.1 mm 8 mps 756 mmHg 82%
    05:00 -18°C° 0.5 mm 8 mps 755 mmHg 86%
    06:00 -18°C° 0.5 mm 8 mps 755 mmHg 90%
    07:00 -17°C° 0.5 mm 7 mps 754 mmHg 93%
    08:00 -15°C° 0.6 mm 7 mps 754 mmHg 93%
    09:00 -14°C° 0.6 mm 7 mps 754 mmHg 94%
    10:00 -12°C° 0.6 mm 6 mps 754 mmHg 94%
    11:00 -11°C° 0.5 mm 6 mps 754 mmHg 94%
    12:00 -9°C° 0.5 mm 6 mps 753 mmHg 94%
    13:00 -8°C° 0.5 mm 6 mps 753 mmHg 94%
    14:00 -6°C° 0.6 mm 5 mps 753 mmHg 95%
    15:00 -5°C° 0.6 mm 4 mps 753 mmHg 95%
    16:00 -4°C° 0.6 mm 3 mps 753 mmHg 95%
    17:00 -5°C° 0.2 mm 3 mps 753 mmHg 96%
    18:00 -4°C° 0.2 mm 2 mps 754 mmHg 96%
    19:00 -4°C° 0.2 mm 2 mps 754 mmHg 97%
    20:00 -5°C° 0.1 mm 2 mps 754 mmHg 97%
    21:00 -6°C° 0.1 mm 2 mps 754 mmHg 96%
    22:00 -6°C° 0.1 mm 2 mps 754 mmHg 96%
    23:00 -9°C° 0.1 mm 3 mps 755 mmHg 95%

    26 January, Saturday

    Time Temperature Precipitation Wind Pressure Humidity
    00:00 -10°C° 0.1 mm 3 mps 755 mmHg 94%
    01:00 -12°C° 0.1 mm 4 mps 755 mmHg 94%
    02:00 -14°C° 0.1 mm 4 mps 755 mmHg 93%
    03:00 -15°C° 0.1 mm 4 mps 755 mmHg 92%
    04:00 -15°C° 0.1 mm 4 mps 756 mmHg 92%
    05:00 -16°C° 0 mm 4 mps 756 mmHg 91%
    06:00 -16°C° 0 mm 4 mps 756 mmHg 90%
    07:00 -16°C° 0 mm 4 mps 756 mmHg 90%
    08:00 -16°C° 0 mm 4 mps 756 mmHg 88%
    09:00 -17°C° 0 mm 5 mps 756 mmHg 87%
    10:00 -15°C° 0 mm 5 mps 757 mmHg 85%
    11:00 -15°C° 0 mm 5 mps 757 mmHg 86%
    12:00 -14°C° 0 mm 5 mps 756 mmHg 87%
    13:00 -13°C° 0 mm 5 mps 756 mmHg 87%
    14:00 -13°C° 0.1 mm 5 mps 756 mmHg 89%
    15:00 -13°C° 0.1 mm 5 mps 756 mmHg 90%
    16:00 -13°C° 0.1 mm 5 mps 756 mmHg 91%
    17:00 -13°C° 0 mm 5 mps 756 mmHg 91%
    18:00 -14°C° 0 mm 5 mps 756 mmHg 91%
    19:00 -14°C° 0 mm 5 mps 756 mmHg 92%
    20:00 -14°C° 0 mm 5 mps 756 mmHg 92%
    21:00 -14°C° 0 mm 5 mps 756 mmHg 92%
    22:00 -15°C° 0 mm 5 mps 756 mmHg 91%
    23:00 -15°C° 0 mm 6 mps 756 mmHg 91%

    27 January, Sunday

    Time Temperature Precipitation Wind Pressure Humidity
    00:00 -15°C° 0 mm 6 mps 756 mmHg 91%
    01:00 -15°C° 0 mm 6 mps 756 mmHg 91%
    02:00 -15°C° 0 mm 6 mps 755 mmHg 91%
    03:00 -15°C° 0 mm 6 mps 755 mmHg 92%
    04:00 -15°C° 0 mm 6 mps 755 mmHg 92%
    05:00 -14°C° 0 mm 6 mps 755 mmHg 91%
    06:00 -14°C° 0 mm 7 mps 755 mmHg 91%
    07:00 -13°C° 0 mm 7 mps 755 mmHg 90%
    08:00 -13°C° 0 mm 7 mps 755 mmHg 90%
    09:00 -13°C° 0 mm 7 mps 755 mmHg 89%
    10:00 -13°C° 0 mm 7 mps 755 mmHg 89%
    11:00 -13°C° 0 mm 8 mps 754 mmHg 89%
    12:00 -12°C° 0 mm 8 mps 754 mmHg 88%
    13:00 -12°C° 0 mm 8 mps 754 mmHg 88%
    14:00 -12°C° 0 mm 7 mps 754 mmHg 88%
    15:00 -13°C° 0 mm 7 mps 753 mmHg 88%
    16:00 -13°C° 0 mm 7 mps 753 mmHg 88%
    17:00 -14°C° 0 mm 7 mps 753 mmHg 88%
    18:00 -15°C° 0 mm 7 mps 753 mmHg 88%
    19:00 -17°C° 0 mm 7 mps 753 mmHg 89%
    20:00 -17°C° 0 mm 7 mps 753 mmHg 89%
    21:00 -18°C° 0 mm 7 mps 753 mmHg 89%
    22:00 -18°C° 0 mm 7 mps 752 mmHg 89%
    23:00 -19°C° 0 mm 7 mps 752 mmHg 89%

    28 January, Monday

    Time Temperature Precipitation Wind Pressure Humidity
    00:00 -18°C° 0 mm 6 mps 752 mmHg 89%
    01:00 -20°C° 0 mm 6 mps 752 mmHg 90%
    02:00 -20°C° 0 mm 6 mps 752 mmHg 90%
    03:00 -21°C° 0 mm 6 mps 752 mmHg 90%
    04:00 -21°C° 0 mm 6 mps 752 mmHg 90%
    05:00 -21°C° 0 mm 6 mps 752 mmHg 90%
    06:00 -22°C° 0 mm 6 mps 751 mmHg 89%
    07:00 -21°C° 0 mm 5 mps 751 mmHg 89%
    08:00 -21°C° 0 mm 5 mps 751 mmHg 89%
    09:00 -20°C° 0 mm 5 mps 752 mmHg 89%
    10:00 -20°C° 0 mm 5 mps 752 mmHg 88%
    11:00 -19°C° 0 mm 5 mps 752 mmHg 88%
    12:00 -19°C° 0 mm 5 mps 751 mmHg 88%
    13:00 -17°C° 0 mm 4 mps 751 mmHg 88%
    14:00 -17°C° 0 mm 4 mps 751 mmHg 89%
    15:00 -18°C° 0 mm 4 mps 751 mmHg 89%
    16:00 -17°C° 0 mm 3 mps 751 mmHg 90%
    17:00 -18°C° 0 mm 3 mps 751 mmHg 89%
    18:00 -19°C° 0 mm 3 mps 751 mmHg 89%
    19:00 -20°C° 0 mm 4 mps 751 mmHg 88%
    20:00 -21°C° 0 mm 3 mps 752 mmHg 88%
    21:00 -21°C° 0 mm 3 mps 752 mmHg 87%
    22:00 -21°C° 0 mm 3 mps 752 mmHg 87%
    23:00 -21°C° 0 mm 3 mps 752 mmHg 87%
    Show more